Skip Page Navigation
NASA JPL Caltech
NASA Logo - Jet Propulsion Laboratory + View the NASA Portal
+ Center for Near-Earth Object Studies
JPL Home Earth Solar System Stars & Galaxies Technology
JPL Solar System Dynamics
BODIES ORBITS EPHEMERIDES TOOLS PHYSICAL DATA DISCOVERY FAQ SITE MAP
JPL Small-Body Database Browser
Search: [ help ]  
214749 (2006 TO60)
Classification: Main-belt Asteroid          SPK-ID: 2214749
Ephemeris | Orbit Diagram | Orbital Elements | Mission Design | Physical Parameters | Discovery Circumstances | Close-Approach Data ]

[ show orbit diagram ]
Orbital Elements at Epoch 2459000.5 (2020-May-31.0) TDB
Reference: JPL 14 (heliocentric ecliptic J2000)
 Element Value Uncertainty (1-sigma)   Units 
e .07100594305641833 5.6568e-08  
a 2.989069215189391 3.6316e-08 au
q 2.77682753670396 1.7419e-07 au
i 11.51761388638036 6.3273e-06 deg
node 35.51390275377699 2.6677e-05 deg
peri 186.7150791997699 4.8248e-05 deg
M 53.39056027108902 3.8683e-05 deg
tp 2458720.560384358796
(2019-Aug-25.06038436)
0.00020311 TDB
period 1887.567036553555
5.17
3.44e-05
9.418e-08
d
yr
n .1907217031387197 3.4758e-09 deg/d
Q 3.201310893674822 3.8895e-08 au
  Orbit Determination Parameters
   # obs. used (total)      314  
   data-arc span      5939 days (16.26 yr)  
   first obs. used      2003-02-01  
   last obs. used      2019-05-07  
   planetary ephem.      DE431  
   SB-pert. ephem.      SB431-N16  
   condition code      0  
   norm. resid. RMS      .61621  
   source      ORB  
   producer      Otto Matic  
   solution date      2019-May-30 08:21:33  

Additional Information
 Earth MOID = 1.76901 au 
 Jupiter MOID = 1.76896 au 
 T_jup = 3.222 
[ hide covariance matrix ]
Orbital Elements at Epoch 2457110.5 (2015-Mar-29.0) TDB
Reference: JPL 14 (heliocentric ecliptic J2000)
 Element Value Uncertainty (1-sigma)   Units 
e .06906090401579429 5.6698e-08  
q 2.780315477577927 1.7384e-07 au
tp 2456830.954671956741
(2014-Jun-22.45467196)
0.00021312 TDB
node 35.57744860988099 2.6648e-05 deg
peri 185.796222276918 4.912e-05 deg
i 11.52674963527283 6.331e-06 deg
  Orbit Determination Parameters
   # obs. used (total)      314  
   data-arc span      5939 days (16.26 yr)  
   first obs. used      2003-02-01  
   last obs. used      2019-05-07  
   planetary ephem.      DE431  
   SB-pert. ephem.      SB431-N16  
   condition code      0  
   norm. resid. RMS      .61621  
   source      ORB  
   producer      Otto Matic  
   solution date      2019-May-30 08:21:33  

Additional Information
 Jupiter MOID = 1.76896 au 
 T_jup = 3.222 
Orbit Covariance (6×6)
  e q tp node peri i
e 3.214655071266315E-15 -9.668867266336555E-15 -1.058202349607702E-12 1.88904760073362E-15 -1.342881994402883E-13 1.14218653058855E-15
q -9.668867266336555E-15 3.022130712354845E-14 1.559247305943796E-12 -9.698572115361309E-15 1.263346309852234E-13 -1.548756583078855E-15
tp -1.058202349607702E-12 1.559247305943796E-12 4.541902897219727E-8 -2.025855298648713E-11 8.816063743389656E-9 9.468271860325062E-13
node 1.88904760073362E-15 -9.698572115361309E-15 -2.025855298648713E-11 7.101312823604685E-10 -6.998860909563581E-10 -1.127628266204084E-11
peri -1.342881994402883E-13 1.263346309852234E-13 8.816063743389656E-9 -6.998860909563581E-10 2.412804922710868E-9 1.139623061496832E-11
i 1.14218653058855E-15 -1.548756583078855E-15 9.468271860325062E-13 -1.127628266204084E-11 1.139623061496832E-11 4.008128972727364E-11

Ephemeris | Orbit Diagram | Orbital Elements | Mission Design | Physical Parameters | Discovery Circumstances | Close-Approach Data ]

Physical Parameter Table
Parameter Symbol Value Units Sigma Reference Notes
absolute magnitude H 15.5   n/a MPO433404  

214749 (2006 TO60)          Discovered 2006-Oct-13 by Spacewatch at Kitt Peak
Reference: 20090509/Numbers.arcLast Updated: 2009-05-11

[ hide close-approach data ]
Close-Approach Data   ...sorted by Date/Time (TDB)
Date/Time (TDB) Time Uncertainty
(days_HH:MM)
Body Nominal Distance (au) Minimum Distance (au) Maximum Distance (au) V-relative (km/s) V-infinity (km/s) JD (TDB) Time Uncertainty (minutes) Semi-major axis (km) Semi-minor axis (km) range-LOV angle (deg) N-sigma BP Orbit Ref. Reference Modified
1929-Jul-30 11:01 00:05 Jupiter 1.90035130225934 1.9003490863089 1.90035351823148 3.67613732296869 3.55282251067027 2425822.959227350 4.58545268371362 353.765653196695 20.9986781858997 -71.8876255335984 2346043.69246911 T 14 CATAB v2.0e-lin.ifort 2019-May-30 08:21:36 2019-May-30 08:21
1975-Feb-23 23:22 00:02 Jupiter 1.86691646658787 1.86691555848795 1.86691737469692 3.63301525805369 3.50590889371875 2442467.473493592 2.18712776682879 300.099793188591 28.9280859198463 -83.3104706741327 2342798.39028113 T 14 CATAB v2.0e-lin.ifort 2019-May-30 08:21:36 2019-May-30 08:21
2011-Sep-26 23:24 < 00:01 Jupiter 1.76717209820938 1.76717156336315 1.76717263305822 3.74280763922624 3.61247697081525 2455831.474769748 0.318324913535588 219.941688902631 17.1821446246631 -85.5885708743653 2394528.60895849 T 14 CATAB v2.0e-lin.ifort 2019-May-30 08:21:36 2019-May-30 08:21
2048-May-01 00:13 00:02 Jupiter 1.92906075281127 1.92905974472217 1.92906176090356 3.58974133452204 3.46526650366634 2469197.509062109 1.85324494594962 153.477440708396 18.5734647719614 -72.4568919030451 2399008.32666152 T 14 CATAB v2.0e-lin.ifort 2019-May-30 08:21:36 2019-May-30 08:21
2093-Nov-25 10:20 00:04 Jupiter 1.84504122689801 1.84503948540103 1.84504296845845 3.71643702367858 3.59078585806933 2485841.930600277 4.20272802772545 601.170389797217 29.6350497499629 -82.1697154882419 2276147.85369568 T 14 CATAB v2.0e-lin.ifort 2019-May-30 08:21:36 2019-May-30 08:21
2130-Jun-27 08:46 00:06 Jupiter 1.77371332769475 1.77371244170502 1.77371421369486 3.72462955993071 3.59413153137761 2499203.864948256 6.0092247001944 281.601659981805 22.1224139883322 -81.9577322980327 2354935.4734513 T 14 CATAB v2.0e-lin.ifort 2019-May-30 08:21:36 2019-May-30 08:21
2167-Feb-04 03:53 00:08 Jupiter 1.96123459221363 1.9612305176384 1.96123866683535 3.4884687656854 3.36238750290546 2512574.661703051 8.40924812728147 529.799222160461 19.4366910968962 -66.7645650150158 2367119.09484128 T 14 CATAB v2.0e-lin.ifort 2019-May-30 08:21:36 2019-May-30 08:21
Ephemeris | Orbit Diagram | Orbital Elements | Mission Design | Physical Parameters | Discovery Circumstances | Close-Approach Data ]
ABOUT SSD CREDITS/AWARDS PRIVACY/COPYRIGHT GLOSSARY LINKS
FirstGov 2020-Sep-29 10:03 UT
(server date/time)  
NASA Home Page
Site Manager:   Ryan S. Park
Webmaster  Alan B. Chamberlin